Regional Weather Roundup
Issued by NWS Sioux Falls, SD

Home | Current Version | Previous Version | Graphics & Text | Print | Product List | Glossary On
Versions: 1 2 3 4 5 6 7 8 9 10 11 12 13 14 15 16 17 18 19 20 21 22 23 24 25 26 27 28 29 30 31 32 33 34 35 36 37 38 39 40 41 42 43 44 45 46 47 48 49 50
000
ASUS43 KFSD 220510
RWRFSD

WEATHER ROUNDUP FOR SE SOUTH DAKOTA/SW MINNESOTA/NW IOWA
NATIONAL WEATHER SERVICE SIOUX FALLS SD
1100 PM CST SUN DEC 21 2014

NOTE: "FAIR" INDICATES FEW OR NO CLOUDS BELOW 12,000 FEET WITH NO
SIGNIFICANT WEATHER AND OR OBSTRUCTIONS TO VISIBILITY.


SDZ038>040-050-052>070-220600-
SOUTHEAST SOUTH DAKOTA

CITY           SKY/WX    TMP DP  RH WIND       PRES   REMARKS
CHAMBERLAIN    CLOUDY    35  32  88 SW8       29.42S WCI  29
HURON          CLOUDY    37  35  92 S13       29.45F FOG
MADISON        CLOUDY    36  36 100 S14G22    29.51S
MITCHELL       CLOUDY    37  35  92 S12       29.48S
SIOUX FALLS    CLOUDY    39  37  92 S18G28    29.54S
WINNER         CLOUDY    39  31  72 SW8       29.44R
YANKTON        CLOUDY    39  37  93 S15       29.54F
$$

MNZ071-072-080-081-089-090-097-098-220600-
SOUTHWEST MINNESOTA

CITY           SKY/WX    TMP DP  RH WIND       PRES   REMARKS
FAIRMONT       CLOUDY    37  34  87 S15G21    29.67S
JACKSON        CLOUDY    37  36  93 S13       29.64S FOG
LUVERNE        CLOUDY    37  36  93 S12       29.58S FOG
MARSHALL       CLOUDY    37  34  87 S14       29.57S
MONTEVIDEO     CLOUDY    36  36 100 S9        29.59S
PIPESTONE      CLOUDY    37  36  93 S17G23    29.54S FOG
REDWOOD FALLS  CLOUDY    37  36  96 SE17      29.62S FOG
TRACY          CLOUDY    38  37  94 S16G22    29.57F
WINDOM         CLOUDY    37  37 100 SE14      29.62S FOG
WORTHINGTON    CLOUDY    37 -11  12 S17G24    29.60S
$$

IAZ001>003-012>014-020>022-031-032-NEZ013-014-SDZ071-220600-
NORTHWEST IOWA

CITY           SKY/WX    TMP DP  RH WIND       PRES   REMARKS
CHEROKEE       CLOUDY    40  40 100 S15       29.63F FOG
DENISON        CLOUDY    41  41 100 S17       29.64S FOG
ESTHERVILLE    CLOUDY    37  37 100 S16       29.65F FOG
LE MARS        CLOUDY    41  41 100 S16G24    29.60S
ORANGE CITY    CLOUDY    39  37  93 S12       29.59S FOG
SHELDON        CLOUDY    39  39 100 S17       29.59S FOG
SIOUX CITY     CLOUDY    42  40  92 SE13      29.61S FOG
SPENCER        CLOUDY    39  37  92 S16       29.63F FOG
STORM LAKE     CLOUDY    39  39 100 S17       29.65S FOG
$$

ABBREVIATIONS USED IN REMARKS
   TC - TEMPERATURE IN CELSIUS
  WCI - WIND CHILL INDEX
   HX - HEAT INDEX
  VSB - VISIBILITY




USA.gov is the U.S. government's official web portal to all federal, state and local government web resources and services.